QPF
0.00 0.00 0.00 0.00 0.00 0.00 0.00 0.00 0.00 0.00 0.00 0.00 0.00 0.00 0.03 0.01 0.05 0.01 0.00 0.00 0.00 0.00 0.00 0.00 0.00 0.00 0.00 0.00 0.00 0.00 0.00 0.00
0.00 0.00 0.00 0.00 0.00 0.00 0.00 0.00 0.00 0.00 0.00 0.00 0.00 0.01 0.04 0.07 0.05 0.02 0.02 0.00 0.00 0.00 0.00 0.00 0.00 0.00 0.00 0.00 0.00 0.00 0.00 0.00
0.00 0.00 0.00 0.00 0.00 0.00 0.00 0.00 0.00 0.00 0.00 0.00 0.00 0.00 0.00 0.00 0.02 0.00 0.00 0.00 0.00 0.00 0.00 0.01 0.00 0.00 0.00 0.00 0.00 0.00 0.00 0.00
0.00 0.00 0.00 0.00 0.00 0.00 0.00 0.00 0.00 0.00 0.00 0.00 0.00 0.00 0.00 0.00 0.00 0.00 0.00 0.00 0.01 0.03 0.06 0.07 0.08 0.02 0.01 0.06 0.01 0.00 0.01 0.01
0.00 0.00 0.00 0.00 0.00 0.00 0.00 0.00 0.00 0.00 0.00 0.00 0.00 0.00 0.00 0.00 0.00 0.00 0.00 0.00 0.00 0.00 0.00 0.01 0.02 0.05 0.03 0.16 0.14 0.06 0.13 0.07
0.00 0.00 0.00 0.00 0.00 0.00 0.00 0.00 0.00 0.00 0.00 0.00 0.00 0.00 0.00 0.00 0.00 0.00 0.00 0.00 0.00 0.00 0.00 0.00 0.00 0.00 0.01 0.00 0.03 0.04 0.02 0.03
0.00 0.00 0.00 0.00 0.00 0.00 0.00 0.00 0.00 0.00 0.00 0.00 0.00 0.00 0.00 0.00 0.00 0.00 0.00 0.00 0.00 0.00 0.00 0.00 0.00 0.00 0.00 0.00 0.02 0.04 0.04 0.03
0.00 0.00 0.00 0.00 0.00 0.00 0.00 0.00 0.00 0.00 0.00 0.00 0.00 0.00 0.00 0.00 0.00 0.00 0.00 0.00 0.00 0.00 0.00 0.00 0.00 0.00 0.00 0.00 0.00 0.01 0.04 0.04
0.00 0.00 0.00 0.00 0.00 0.00 0.00 0.00 0.00 0.00 0.00 0.00 0.00 0.00 0.00 0.00 0.00 0.00 0.00 0.00 0.00 0.00 0.00 0.00 0.00 0.00 0.00 0.00 0.00 0.00 0.00 0.00
0.00 0.00 0.00 0.00 0.00 0.00 0.00 0.00 0.00 0.00 0.00 0.00 0.00 0.00 0.00 0.00 0.00 0.00 0.00 0.00 0.00 0.00 0.00 0.00 0.00 0.00 0.00 0.00 0.00 0.00 0.00 0.00
0.00 0.00 0.00 0.00 0.00 0.00 0.00 0.00 0.00 0.00 0.00 0.00 0.00 0.00 0.00 0.00 0.00 0.00 0.00 0.00 0.00 0.00 0.00 0.00 0.00 0.00 0.00 0.00 0.00 0.00 0.00 0.00
0.00 0.00 0.00 0.00 0.00 0.00 0.00 0.00 0.00 0.00 0.00 0.00 0.00 0.00 0.00 0.00 0.00 0.00 0.00 0.00 0.00 0.00 0.00 0.00 0.00 0.00 0.00 0.00 0.00 0.00 0.00 0.00
0.00 0.00 0.00 0.00 0.00 0.00 0.00 0.00 0.00 0.00 0.00 0.00 0.00 0.00 0.00 0.00 0.00 0.00 0.00 0.00 0.00 0.00 0.00 0.00 0.00 0.00 0.00 0.00 0.00 0.00 0.00 0.00
0.00 0.00 0.00 0.00 0.00 0.00 0.00 0.00 0.00 0.00 0.00 0.00 0.00 0.00 0.00 0.00 0.00 0.00 0.00 0.00 0.00 0.00 0.00 0.00 0.00 0.00 0.00 0.00 0.00 0.00 0.00 0.00
0.00 0.00 0.00 0.00 0.00 0.00 0.00 0.00 0.00 0.00 0.00 0.00 0.00 0.00 0.00 0.00 0.00 0.00 0.00 0.00 0.00 0.00 0.00 0.00 0.00 0.00 0.00 0.00 0.00 0.00 0.00 0.00
0.00 0.00 0.00 0.00 0.00 0.00 0.00 0.00 0.00 0.00 0.00 0.00 0.00 0.00 0.00 0.00 0.00 0.00 0.00 0.00 0.00 0.00 0.00 0.00 0.00 0.00 0.00 0.00 0.00 0.01 0.01 0.00
0.00 0.00 0.00 0.00 0.00 0.00 0.00 0.00 0.00 0.00 0.00 0.00 0.00 0.00 0.00 0.00 0.00 0.00 0.00 0.00 0.00 0.00 0.00 0.00 0.00 0.00 0.00 0.00 0.00 0.00 0.00 0.01
0.00 0.00 0.00 0.00 0.00 0.00 0.00 0.00 0.00 0.00 0.00 0.00 0.00 0.00 0.00 0.00 0.00 0.00 0.00 0.00 0.00 0.00 0.00 0.00 0.00 0.00 0.00 0.00 0.00 0.00 0.00 0.00
0.00 0.00 0.00 0.00 0.00 0.00 0.00 0.00 0.00 0.00 0.00 0.00 0.00 0.00 0.00 0.00 0.00 0.00 0.00 0.00 0.00 0.00 0.00 0.00 0.00 0.00 0.00 0.00 0.00 0.00 0.00 0.00
0.00 0.00 0.00 0.00 0.00 0.00 0.00 0.00 0.00 0.00 0.00 0.00 0.00 0.00 0.00 0.00 0.00 0.00 0.00 0.00 0.00 0.00 0.00 0.00 0.00 0.00 0.00 0.00 0.00 0.00 0.00 0.00
MSLP
1016.06 1015.95 1016.27 1016.15 1016.32 1016.32 1016.43 1016.41 1016.36 1016.38 1016.36 1016.20 1016.03 1015.92 1015.98 1015.76 1015.64 1015.58 1015.48 1015.21 1015.05 1014.87 1014.72 1014.62 1014.54 1014.50 1014.38 1014.25 1014.17 1014.13 1013.98 1013.56
1016.71 1016.51 1016.21 1016.08 1016.29 1016.41 1016.37 1016.38 1016.49 1016.59 1016.45 1016.24 1015.97 1015.74 1015.77 1015.70 1015.67 1015.63 1015.37 1015.22 1015.11 1014.91 1014.71 1014.55 1014.33 1014.15 1014.07 1013.94 1013.58 1013.42 1013.35 1012.83
1017.29 1017.13 1016.68 1016.31 1016.29 1016.32 1016.37 1016.43 1016.52 1016.76 1016.88 1016.61 1016.27 1016.01 1015.97 1015.70 1015.45 1015.44 1015.32 1015.07 1014.82 1014.75 1014.61 1014.41 1014.14 1013.93 1013.68 1013.36 1013.14 1012.88 1012.22 1011.96
1017.53 1017.52 1017.20 1016.84 1016.67 1016.72 1016.66 1016.74 1016.94 1017.27 1017.55 1017.31 1017.03 1016.63 1016.65 1016.30 1015.85 1015.52 1015.27 1015.05 1014.65 1014.56 1014.35 1014.12 1014.03 1013.84 1013.45 1013.00 1012.83 1011.93 1012.43 1011.73
1017.52 1017.63 1017.49 1017.16 1017.18 1017.04 1017.03 1017.24 1017.33 1017.56 1017.91 1018.02 1017.73 1017.30 1017.36 1017.03 1016.56 1016.21 1015.73 1015.41 1015.29 1015.01 1014.60 1014.18 1013.98 1013.77 1013.46 1013.10 1012.63 1011.82 1012.21 1011.10
1017.66 1017.81 1017.83 1017.59 1017.44 1017.63 1017.52 1017.49 1017.73 1017.86 1018.18 1018.47 1018.35 1018.04 1018.05 1017.71 1017.28 1016.81 1016.42 1016.24 1016.09 1015.76 1015.35 1014.80 1014.38 1013.83 1013.51 1013.36 1012.91 1012.20 1011.87 1011.57
1017.77 1017.93 1018.04 1018.00 1018.11 1018.07 1018.15 1018.08 1018.16 1018.26 1018.54 1018.91 1018.92 1018.77 1018.74 1018.31 1017.74 1017.30 1017.06 1017.04 1016.68 1016.41 1015.84 1015.47 1014.87 1014.33 1013.84 1013.34 1013.11 1012.63 1011.74 1011.09
1017.94 1018.08 1018.03 1018.03 1018.23 1018.18 1018.30 1018.47 1018.43 1018.58 1018.85 1019.24 1019.39 1019.36 1019.26 1018.91 1018.24 1017.82 1017.75 1017.88 1017.30 1016.82 1016.45 1015.98 1015.54 1015.03 1014.53 1013.90 1013.30 1012.65 1012.30 1011.83
1017.93 1018.18 1018.28 1018.24 1018.29 1018.40 1018.51 1018.77 1018.71 1018.95 1019.13 1019.42 1019.72 1019.72 1019.70 1019.44 1018.77 1018.46 1018.51 1018.21 1017.66 1017.23 1016.89 1016.63 1016.21 1015.61 1015.15 1014.41 1013.67 1013.17 1012.63 1012.01
1018.21 1018.36 1018.48 1018.54 1018.56 1018.77 1018.83 1019.02 1019.00 1019.28 1019.49 1019.78 1020.06 1020.08 1020.07 1019.83 1019.25 1019.09 1019.11 1018.56 1018.16 1017.93 1017.71 1017.45 1017.09 1016.55 1015.77 1014.92 1014.18 1013.65 1012.94 1012.14
1018.36 1018.64 1018.60 1018.72 1018.72 1018.78 1018.91 1019.13 1019.34 1019.58 1019.87 1020.24 1020.39 1020.39 1020.42 1020.32 1019.86 1019.71 1019.45 1019.18 1018.91 1018.84 1018.59 1018.33 1017.74 1017.11 1016.34 1015.60 1014.89 1014.05 1013.26 1012.30
1018.49 1018.76 1018.82 1019.03 1018.89 1018.79 1019.05 1019.07 1019.40 1019.67 1020.07 1020.38 1020.65 1020.78 1020.78 1020.71 1020.45 1020.35 1020.07 1019.92 1019.70 1019.49 1019.30 1018.91 1018.53 1017.93 1017.19 1016.04 1015.33 1014.20 1013.50 1012.92
1018.54 1018.82 1019.03 1019.01 1019.16 1019.34 1019.42 1019.61 1019.62 1019.92 1020.21 1020.41 1020.70 1020.90 1021.04 1020.87 1020.87 1020.83 1020.69 1020.47 1020.25 1020.21 1020.20 1019.91 1019.41 1018.95 1017.77 1016.62 1015.21 1013.84 1013.56 1013.59
1018.42 1018.88 1019.27 1019.32 1019.44 1019.58 1019.63 1019.66 1019.73 1019.98 1020.31 1020.44 1020.81 1020.88 1020.98 1020.96 1021.07 1021.00 1021.04 1020.96 1020.87 1021.21 1021.12 1020.87 1020.56 1020.19 1019.36 1018.09 1015.95 1014.47 1013.95 1013.77
1018.25 1018.82 1019.35 1019.77 1019.69 1019.81 1019.72 1019.62 1019.83 1020.41 1020.71 1020.83 1021.03 1020.84 1020.87 1020.92 1021.04 1021.21 1021.29 1020.95 1021.10 1021.64 1021.87 1021.61 1020.98 1020.63 1020.44 1020.17 1018.27 1017.03 1016.25 1014.20
1018.43 1018.87 1019.42 1019.99 1020.08 1020.15 1020.24 1020.41 1020.68 1020.89 1020.98 1021.06 1020.97 1020.91 1021.02 1021.16 1021.47 1021.57 1021.57 1021.65 1021.61 1021.86 1022.06 1021.98 1021.54 1020.95 1020.77 1020.25 1019.95 1019.29 1018.12 1014.99
1018.62 1018.96 1019.48 1019.99 1020.28 1020.46 1020.65 1020.97 1021.07 1021.01 1021.10 1021.22 1021.13 1021.17 1021.01 1021.22 1021.46 1021.65 1021.92 1022.01 1022.29 1022.29 1022.24 1022.00 1021.67 1021.41 1021.08 1020.60 1020.26 1019.72 1019.20 1018.34
1018.77 1018.91 1019.45 1019.98 1020.33 1020.66 1020.99 1021.28 1021.43 1021.35 1021.30 1021.26 1021.41 1021.37 1021.39 1021.33 1021.58 1021.99 1022.32 1021.93 1021.83 1022.18 1022.22 1021.93 1021.59 1021.36 1021.11 1020.92 1020.65 1020.12 1019.46 1018.84
1018.70 1018.86 1019.43 1020.02 1020.48 1020.89 1021.14 1021.47 1021.51 1021.61 1021.60 1021.77 1021.72 1021.65 1021.78 1022.00 1022.12 1022.30 1022.38 1022.24 1021.90 1022.04 1022.06 1021.65 1021.37 1021.17 1021.10 1020.87 1020.57 1020.07 1019.59 1019.06
1018.39 1018.75 1019.34 1020.03 1020.52 1020.96 1021.32 1021.64 1021.72 1021.82 1022.07 1022.03 1021.91 1021.88 1021.82 1021.84 1022.20 1022.55 1022.54 1022.24 1021.98 1021.94 1021.79 1021.37 1021.22 1021.24 1021.02 1020.71 1020.41 1019.98 1019.52 1019.00
Thickness
5701 5700 5698 5698 5695 5694 5691 5690 5690 5688 5687 5688 5688 5688 5686 5688 5687 5687 5687 5688 5688 5688 5688 5688 5687 5686 5685 5685 5684 5682 5681 5682
5693 5693 5694 5693 5690 5689 5688 5687 5685 5683 5683 5683 5685 5684 5682 5682 5681 5681 5683 5683 5682 5683 5683 5683 5684 5683 5683 5683 5684 5683 5682 5684
5685 5685 5686 5687 5686 5685 5684 5682 5681 5678 5676 5676 5676 5677 5676 5676 5677 5677 5677 5679 5679 5679 5679 5678 5679 5680 5680 5680 5682 5681 5686 5686
5679 5678 5679 5680 5679 5678 5678 5676 5673 5670 5667 5667 5667 5668 5667 5667 5669 5671 5672 5672 5674 5674 5674 5674 5672 5673 5675 5675 5678 5687 5675 5677
5675 5673 5672 5673 5671 5672 5671 5669 5667 5663 5659 5657 5657 5659 5657 5658 5659 5660 5662 5664 5663 5664 5666 5668 5668 5668 5668 5667 5671 5679 5668 5652
5668 5665 5664 5666 5665 5662 5663 5662 5659 5656 5652 5649 5648 5648 5646 5647 5648 5649 5650 5650 5649 5650 5651 5655 5657 5659 5660 5660 5659 5668 5668 5666
5665 5662 5659 5658 5656 5655 5653 5652 5649 5646 5643 5639 5637 5636 5635 5635 5637 5638 5638 5635 5635 5636 5638 5639 5642 5644 5647 5650 5651 5653 5661 5668
5658 5656 5655 5653 5650 5648 5646 5643 5640 5638 5634 5629 5625 5624 5622 5623 5625 5625 5623 5619 5620 5621 5622 5624 5626 5628 5631 5633 5637 5642 5644 5649
5652 5649 5646 5646 5643 5640 5637 5633 5631 5627 5624 5619 5614 5611 5608 5607 5609 5608 5605 5605 5606 5606 5606 5604 5606 5609 5613 5618 5622 5624 5628 5634
5644 5642 5639 5637 5634 5630 5628 5623 5621 5617 5612 5607 5602 5598 5595 5593 5594 5591 5587 5588 5588 5587 5586 5585 5584 5586 5592 5598 5604 5606 5611 5617
5636 5632 5631 5628 5625 5622 5618 5614 5610 5605 5599 5593 5588 5585 5581 5577 5576 5573 5571 5568 5566 5564 5562 5562 5564 5568 5572 5576 5580 5585 5591 5599
5628 5624 5621 5617 5616 5613 5609 5605 5599 5593 5586 5580 5573 5568 5563 5559 5556 5552 5549 5546 5544 5542 5540 5539 5539 5544 5549 5559 5561 5567 5570 5576
5619 5614 5611 5609 5604 5599 5595 5590 5586 5580 5573 5567 5560 5554 5547 5544 5539 5534 5530 5528 5526 5522 5518 5515 5514 5515 5524 5534 5543 5553 5553 5553
5612 5606 5600 5597 5593 5588 5583 5578 5573 5566 5559 5554 5545 5540 5535 5529 5524 5520 5513 5509 5505 5496 5494 5493 5489 5488 5493 5501 5521 5535 5535 5534
5605 5598 5590 5583 5580 5574 5570 5566 5560 5551 5543 5537 5530 5526 5521 5517 5511 5504 5498 5495 5490 5478 5473 5471 5474 5471 5467 5465 5484 5495 5499 5520
5593 5587 5578 5569 5564 5559 5554 5548 5540 5534 5528 5522 5517 5513 5507 5500 5492 5486 5480 5475 5471 5463 5457 5453 5454 5455 5452 5451 5450 5452 5458 5493
5580 5574 5566 5558 5551 5546 5539 5532 5526 5521 5515 5509 5505 5498 5493 5486 5477 5471 5464 5458 5451 5446 5442 5439 5438 5437 5436 5436 5434 5433 5431 5435
5566 5562 5555 5546 5539 5532 5525 5517 5511 5507 5502 5497 5490 5484 5477 5472 5463 5454 5446 5444 5439 5431 5427 5425 5426 5423 5422 5418 5416 5416 5415 5414
5555 5552 5542 5533 5526 5518 5511 5503 5498 5493 5487 5480 5475 5470 5462 5454 5446 5438 5430 5425 5423 5417 5414 5413 5412 5409 5406 5404 5402 5401 5400 5400
5546 5540 5531 5521 5513 5505 5497 5489 5484 5478 5471 5465 5460 5454 5449 5442 5432 5421 5415 5412 5409 5405 5401 5400 5397 5393 5390 5389 5387 5386 5386 5386